| time (UTC) | temp F | wind direction | speed MPH | gust MPH | rain 1hr in | rain 24hr in | rain mn in | humidity % | barometer mb |
| 20260505010704 | 47 | 280 | 10.0 | 19.0 | 0.00 | 0.00 | 0.00 | 46 | 1004.2 |
| 20260505010204 | 47 | 281 | 9.0 | 19.0 | 0.00 | 0.00 | 0.00 | 47 | 1004.3 |
| 20260505005702 | 47 | 311 | 8.0 | 18.0 | 0.00 | 0.00 | 0.00 | 47 | 1004.3 |
| 20260505005202 | 47 | 284 | 8.0 | 14.0 | 0.00 | 0.00 | 0.00 | 47 | 1004.3 |
| 20260505004201 | 47 | 296 | 9.0 | 20.0 | 0.00 | 0.00 | 0.00 | 47 | 1004.3 |
| 20260505002702 | 47 | 306 | 10.0 | 20.0 | 0.00 | 0.00 | 0.00 | 47 | 1004.2 |
| 20260505002159 | 47 | 284 | 10.0 | 20.0 | 0.00 | 0.00 | 0.00 | 46 | 1004.1 |
| 20260505001653 | 48 | 288 | 10.0 | 19.0 | 0.00 | 0.00 | 0.00 | 47 | 1004.2 |
| 20260505001153 | 48 | 294 | 11.0 | 23.0 | 0.00 | 0.00 | 0.00 | 47 | 1004.3 |
| 20260505000653 | 48 | 290 | 10.0 | 23.0 | 0.00 | 0.00 | 0.00 | 46 | 1004.1 |
| 20260505000155 | 48 | 269 | 9.0 | 20.0 | 0.00 | 0.00 | 0.00 | 47 | 1004.1 |
| 20260504235653 | 48 | 306 | 9.0 | 20.0 | 0.00 | 0.00 | 0.00 | 47 | 1004.2 |
| 20260504235153 | 48 | 318 | 9.0 | 17.0 | 0.00 | 0.00 | 0.00 | 49 | 1004.2 |
| 20260504234154 | 48 | 319 | 9.0 | 24.0 | 0.00 | 0.00 | 0.00 | 49 | 1004.0 |
| 20260504233653 | 48 | 316 | 10.0 | 21.0 | 0.00 | 0.00 | 0.00 | 50 | 1004.1 |
| 20260504233155 | 48 | 322 | 13.0 | 25.0 | 0.00 | 0.00 | 0.00 | 50 | 1004.0 |
| 20260504232653 | 48 | 9 | 14.0 | 25.0 | 0.00 | 0.00 | 0.00 | 49 | 1004.0 |
| 20260504232153 | 48 | 296 | 15.0 | 30.0 | 0.00 | 0.00 | 0.00 | 49 | 1003.9 |
| 20260504231654 | 48 | 324 | 12.0 | 30.0 | 0.00 | 0.00 | 0.00 | 49 | 1003.9 |
| 20260504231154 | 48 | 302 | 11.0 | 27.0 | 0.00 | 0.00 | 0.00 | 49 | 1003.9 |
| 20260504230653 | 49 | 305 | 13.0 | 27.0 | 0.00 | 0.00 | 0.00 | 49 | 1003.9 |
| 20260504230154 | 49 | 286 | 13.0 | 24.0 | 0.00 | 0.00 | 0.00 | 48 | 1003.9 |
| 20260504225656 | 49 | 280 | 14.0 | 24.0 | 0.00 | 0.00 | 0.00 | 47 | 1003.9 |
| 20260504225149 | 49 | 281 | 14.0 | 29.0 | 0.00 | 0.00 | 0.00 | 46 | 1003.8 |
| 20260504224143 | 49 | 291 | 16.0 | 32.0 | 0.00 | 0.00 | 0.00 | 45 | 1003.3 |
| 20260504223142 | 49 | 279 | 17.0 | 25.0 | 0.00 | 0.00 | 0.00 | 45 | 1003.2 |
| 20260504222641 | 50 | 281 | 17.0 | 29.0 | 0.00 | 0.00 | 0.00 | 43 | 1003.1 |
| 20260504222142 | 50 | 297 | 15.0 | 29.0 | 0.00 | 0.00 | 0.00 | 44 | 1003.0 |
| 20260504221640 | 50 | 290 | 14.0 | 25.0 | 0.00 | 0.00 | 0.00 | 43 | 1002.9 |
| 20260504221142 | 50 | 302 | 13.0 | 22.0 | 0.00 | 0.00 | 0.00 | 44 | 1003.0 |
| 20260504220641 | 50 | 315 | 13.0 | 24.0 | 0.00 | 0.00 | 0.00 | 44 | 1003.0 |
| 20260504220141 | 50 | 292 | 12.0 | 24.0 | 0.00 | 0.00 | 0.00 | 43 | 1002.8 |
| 20260504215643 | 50 | 289 | 13.0 | 28.0 | 0.00 | 0.00 | 0.00 | 43 | 1002.7 |
| 20260504215142 | 50 | 0 | 14.0 | 28.0 | 0.00 | 0.00 | 0.00 | 43 | 1002.8 |
| 20260504214642 | 51 | 248 | 12.0 | 27.0 | 0.00 | 0.00 | 0.00 | 43 | 1002.7 |
| 20260504214141 | 51 | 299 | 11.0 | 21.0 | 0.00 | 0.00 | 0.00 | 43 | 1002.6 |
| 20260504213642 | 51 | 273 | 13.0 | 28.0 | 0.00 | 0.00 | 0.00 | 43 | 1002.6 |
| 20260504213138 | 51 | 289 | 16.0 | 31.0 | 0.00 | 0.00 | 0.00 | 43 | 1002.6 |
| 20260504212637 | 50 | 313 | 15.0 | 31.0 | 0.00 | 0.00 | 0.00 | 43 | 1002.5 |
| 20260504212138 | 51 | 294 | 13.0 | 26.0 | 0.00 | 0.00 | 0.00 | 43 | 1002.5 |
| 20260504211636 | 51 | 250 | 14.0 | 27.0 | 0.00 | 0.00 | 0.00 | 43 | 1002.5 |
| 20260504211139 | 52 | 267 | 15.0 | 28.0 | 0.00 | 0.00 | 0.00 | 42 | 1002.5 |
| 20260504210637 | 52 | 282 | 14.0 | 28.0 | 0.00 | 0.00 | 0.00 | 43 | 1002.4 |
| 20260504210138 | 52 | 284 | 14.0 | 28.0 | 0.00 | 0.00 | 0.00 | 43 | 1002.3 |
| 20260504205137 | 52 | 309 | 12.0 | 26.0 | 0.00 | 0.00 | 0.00 | 43 | 1002.1 |
| 20260504204638 | 53 | 299 | 13.0 | 24.0 | 0.00 | 0.00 | 0.00 | 44 | 1002.1 |
| 20260504204135 | 53 | 289 | 14.0 | 25.0 | 0.00 | 0.00 | 0.00 | 43 | 1002.0 |
| 20260504203634 | 52 | 290 | 13.0 | 25.0 | 0.00 | 0.00 | 0.00 | 43 | 1001.9 |
| 20260504203135 | 52 | 280 | 13.0 | 26.0 | 0.00 | 0.00 | 0.00 | 45 | 1002.0 |
| 20260504202138 | 53 | 297 | 11.0 | 25.0 | 0.00 | 0.00 | 0.00 | 43 | 1001.9 |
| 20260504201635 | 53 | 274 | 11.0 | 21.0 | 0.00 | 0.00 | 0.00 | 45 | 1001.9 |
| 20260504201136 | 52 | 294 | 11.0 | 21.0 | 0.00 | 0.00 | 0.00 | 47 | 1001.9 |
| 20260504200636 | 51 | 262 | 12.0 | 22.0 | 0.00 | 0.00 | 0.00 | 47 | 1001.9 |
| 20260504200137 | 51 | 320 | 13.0 | 28.0 | 0.00 | 0.00 | 0.00 | 47 | 1001.8 |
| 20260504195631 | 51 | 238 | 14.0 | 28.0 | 0.00 | 0.00 | 0.00 | 47 | 1001.7 |
| 20260504194631 | 52 | 272 | 13.0 | 27.0 | 0.00 | 0.00 | 0.00 | 46 | 1001.7 |
| 20260504194130 | 52 | 323 | 13.0 | 29.0 | 0.00 | 0.00 | 0.00 | 45 | 1001.6 |
| 20260504193631 | 52 | 289 | 14.0 | 29.0 | 0.00 | 0.00 | 0.00 | 45 | 1001.5 |
| 20260504193131 | 52 | 284 | 14.0 | 29.0 | 0.00 | 0.00 | 0.00 | 45 | 1001.4 |
| 20260504192635 | 52 | 327 | 14.0 | 25.0 | 0.00 | 0.00 | 0.00 | 47 | 1001.4 |
| 20260504192131 | 52 | 0 | 15.0 | 28.0 | 0.00 | 0.00 | 0.00 | 47 | 1001.4 |
| 20260504191639 | 52 | 317 | 17.0 | 28.0 | 0.00 | 0.00 | 0.00 | 47 | 1001.5 |
| 20260504191132 | 52 | 279 | 17.0 | 29.0 | 0.00 | 0.00 | 0.00 | 46 | 1001.3 |
| 20260504190632 | 53 | 276 | 13.0 | 29.0 | 0.00 | 0.00 | 0.00 | 46 | 1001.2 |
| 20260504190132 | 54 | 331 | 11.0 | 25.0 | 0.00 | 0.00 | 0.00 | 46 | 1001.0 |
| 20260504185633 | 53 | 303 | 13.0 | 25.0 | 0.00 | 0.00 | 0.00 | 47 | 1000.8 |
| 20260504185134 | 53 | 301 | 14.0 | 26.0 | 0.00 | 0.00 | 0.00 | 47 | 1000.6 |
| 20260504184630 | 52 | 305 | 16.0 | 28.0 | 0.00 | 0.00 | 0.00 | 47 | 1000.8 |
| 20260504184131 | 52 | 294 | 17.0 | 28.0 | 0.00 | 0.00 | 0.00 | 50 | 1000.7 |
| 20260504183131 | 53 | 323 | 15.0 | 28.0 | 0.00 | 0.00 | 0.00 | 47 | 1000.5 |
| 20260504182130 | 54 | 304 | 13.0 | 27.0 | 0.00 | 0.00 | 0.00 | 45 | 1000.2 |
| 20260504181630 | 54 | 286 | 13.0 | 28.0 | 0.00 | 0.00 | 0.00 | 47 | 1000.2 |
| 20260504180629 | 53 | 276 | 14.0 | 28.0 | 0.00 | 0.00 | 0.00 | 45 | 1000.1 |
| 20260504180130 | 53 | 246 | 15.0 | 28.0 | 0.00 | 0.00 | 0.00 | 47 | 1000.0 |
| 20260504175630 | 52 | 309 | 15.0 | 28.0 | 0.00 | 0.00 | 0.00 | 47 | 1000.0 |
| 20260504175129 | 53 | 300 | 15.0 | 33.0 | 0.00 | 0.00 | 0.00 | 47 | 999.9 |
| 20260504174629 | 53 | 265 | 16.0 | 33.0 | 0.00 | 0.00 | 0.00 | 48 | 1000.0 |
| 20260504174129 | 52 | 355 | 17.0 | 28.0 | 0.00 | 0.00 | 0.00 | 49 | 999.9 |
| 20260504173631 | 53 | 302 | 15.0 | 28.0 | 0.00 | 0.00 | 0.00 | 49 | 999.7 |
| 20260504172630 | 53 | 302 | 15.0 | 30.0 | 0.00 | 0.00 | 0.00 | 48 | 999.7 |
| 20260504172130 | 53 | 278 | 16.0 | 30.0 | 0.00 | 0.00 | 0.00 | 47 | 999.9 |
| 20260504171635 | 53 | 273 | 12.0 | 29.0 | 0.00 | 0.00 | 0.00 | 48 | 999.7 |
| 20260504171126 | 53 | 318 | 11.0 | 24.0 | 0.00 | 0.00 | 0.00 | 50 | 999.6 |
| 20260504170619 | 53 | 263 | 12.0 | 24.0 | 0.00 | 0.00 | 0.00 | 51 | 999.7 |
| 20260504170114 | 53 | 277 | 15.0 | 27.0 | 0.00 | 0.00 | 0.00 | 54 | 999.4 |
| 20260504160105 | 54 | 326 | 15.0 | 30.0 | 0.00 | 0.00 | 0.00 | 52 | 998.8 |
| 20260504151036 | 55 | 281 | 15.0 | 35.0 | 0.00 | 0.00 | 0.00 | 49 | 998.2 |
| 20260504141030 | 53 | 292 | 15.0 | 29.0 | 0.00 | 0.00 | 0.00 | 58 | 997.7 |
| 20260504140529 | 53 | 355 | 15.0 | 29.0 | 0.00 | 0.00 | 0.00 | 57 | 997.7 |
| 20260504130506 | 53 | 292 | 10.0 | 21.0 | 0.00 | 0.00 | 0.00 | 56 | 996.7 |
| 20260504110402 | 59 | 261 | 13.0 | 22.0 | 0.00 | 0.00 | 0.00 | 50 | 994.3 |
| 20260504100402 | 60 | 243 | 11.0 | 22.0 | 0.00 | 0.00 | 0.00 | 40 | 993.9 |
| 20260504081847 | 58 | 215 | 8.0 | 15.0 | 0.00 | 0.00 | 0.00 | 41 | 995.1 |
| 20260504081344 | 58 | 211 | 7.0 | 12.0 | 0.00 | 0.00 | 0.00 | 41 | 995.2 |
| 20260504080842 | 58 | 196 | 8.0 | 20.0 | 0.00 | 0.00 | 0.00 | 41 | 995.2 |
| 20260504080343 | 58 | 193 | 8.0 | 20.0 | 0.00 | 0.00 | 0.00 | 41 | 995.3 |
| 20260504070337 | 58 | 188 | 7.0 | 14.0 | 0.00 | 0.00 | 0.00 | 43 | 997.0 |
| 20260504045830 | 58 | 192 | 5.0 | 11.0 | 0.00 | 0.00 | 0.00 | 45 | 999.4 |
| 20260504045329 | 58 | 191 | 6.0 | 11.0 | 0.00 | 0.00 | 0.00 | 44 | 999.5 |
| 20260504044831 | 58 | 217 | 6.0 | 11.0 | 0.00 | 0.00 | 0.00 | 44 | 999.5 |
| 20260504043830 | 58 | 197 | 6.0 | 10.0 | 0.00 | 0.00 | 0.00 | 44 | 999.7 |
| 20260504043329 | 58 | 193 | 5.0 | 11.0 | 0.00 | 0.00 | 0.00 | 44 | 999.8 |
| 20260504042830 | 58 | 180 | 5.0 | 11.0 | 0.00 | 0.00 | 0.00 | 44 | 999.9 |
| 20260504042330 | 58 | 183 | 6.0 | 10.0 | 0.00 | 0.00 | 0.00 | 44 | 1000.1 |
| 20260504041831 | 58 | 168 | 6.0 | 11.0 | 0.00 | 0.00 | 0.00 | 44 | 1000.2 |
| 20260504041329 | 58 | 217 | 5.0 | 11.0 | 0.00 | 0.00 | 0.00 | 44 | 1000.4 |
| 20260504040831 | 58 | 196 | 5.0 | 10.0 | 0.00 | 0.00 | 0.00 | 44 | 1000.5 |
| 20260504035331 | 58 | 188 | 6.0 | 11.0 | 0.00 | 0.00 | 0.00 | 43 | 1001.1 |
| 20260504034824 | 58 | 181 | 5.0 | 11.0 | 0.00 | 0.00 | 0.00 | 43 | 1001.1 |
| 20260504033819 | 58 | 196 | 5.0 | 9.0 | 0.00 | 0.00 | 0.00 | 43 | 1001.4 |
| 20260504033315 | 58 | 193 | 5.0 | 9.0 | 0.00 | 0.00 | 0.00 | 43 | 1001.5 |
| 20260504032315 | 58 | 199 | 4.0 | 9.0 | 0.00 | 0.00 | 0.00 | 43 | 1001.7 |
| 20260504031315 | 58 | 172 | 3.0 | 6.0 | 0.00 | 0.00 | 0.00 | 43 | 1001.9 |
| 20260504030815 | 58 | 184 | 3.0 | 6.0 | 0.00 | 0.00 | 0.00 | 43 | 1002.0 |
| 20260504025813 | 58 | 187 | 3.0 | 5.0 | 0.00 | 0.00 | 0.00 | 44 | 1002.2 |
| 20260504025315 | 59 | 192 | 2.0 | 5.0 | 0.00 | 0.00 | 0.00 | 44 | 1002.3 |
| 20260504024813 | 59 | 190 | 2.0 | 5.0 | 0.00 | 0.00 | 0.00 | 42 | 1002.4 |
| 20260504024314 | 59 | 199 | 2.0 | 4.0 | 0.00 | 0.00 | 0.00 | 43 | 1002.5 |
| 20260504023312 | 60 | 186 | 1.0 | 3.0 | 0.00 | 0.00 | 0.00 | 42 | 1002.6 |
| 20260504022811 | 60 | 185 | 1.0 | 3.0 | 0.00 | 0.00 | 0.00 | 41 | 1002.6 |
| 20260504022307 | 61 | 185 | 2.0 | 4.0 | 0.00 | 0.00 | 0.00 | 40 | 1002.8 |
| 20260504021805 | 61 | 184 | 2.0 | 4.0 | 0.00 | 0.00 | 0.00 | 38 | 1002.8 |
| 20260504020803 | 62 | 186 | 1.0 | 3.0 | 0.00 | 0.00 | 0.00 | 40 | 1002.9 |
| 20260504015802 | 63 | 186 | 1.0 | 2.0 | 0.00 | 0.00 | 0.00 | 38 | 1002.9 |
| 20260504014301 | 64 | 187 | 1.0 | 2.0 | 0.00 | 0.00 | 0.00 | 36 | 1003.0 |
| 20260504013802 | 65 | 187 | 1.0 | 2.0 | 0.00 | 0.00 | 0.00 | 34 | 1003.2 |
| 20260504012803 | 64 | 249 | 2.0 | 5.0 | 0.00 | 0.00 | 0.00 | 33 | 1003.3 |
| 20260504012304 | 64 | 252 | 2.0 | 6.0 | 0.00 | 0.00 | 0.00 | 32 | 1003.3 |
| 20260504011801 | 65 | 242 | 3.0 | 7.0 | 0.00 | 0.00 | 0.00 | 32 | 1003.3 |